Weather History for KPBG - August, 2013

Change the Weather History Date:

Monday, August 26, 2013

  Actual Average Record
Temperature  
Mean Temperature 67 °F 66 °F  
Max Temperature 72 °F 78 °F 95 °F (1949)
Min Temperature 62 °F 55 °F 40 °F (1987)
Degree Days  
Heating Degree Days 0 2  
Month to date heating degree days 17  
Since 1 June heating degree days 113  
Since 1 July heating degree days 28  
Cooling Degree Days 2 3  
Month to date cooling degree days 64 95  
Year to date cooling degree days 351 308  
Since 1 June cooling degree days 331 300  
Growing Degree Days 17 (Base 50)    
Moisture  
Dew Point 66 °F    
Average Humidity 91    
Maximum Humidity 97    
Minimum Humidity 84    
Precipitation  
Precipitation 0.32 in - 0.43 in (1975)
Month to date precipitation 3.36  
Year to date precipitation 23.92  
Sea Level Pressure  
Sea Level Pressure 29.93 in    
Wind  
Wind Speed 2 mph (SSE)    
Max Wind Speed 7 mph    
Max Gust Speed -    
Visibility 7 miles    
Events Rain    
T = Trace of Precipitation, MM = Missing Value Source: NWS Daily Summary

Daily Weather History Graph

Daily Weather History Graph

Search for Another Location

Airport or City:

Trip Planner

Search our weather history database for the weather conditions in past years. The results will help you decide how hot, cold, wet, or windy it might be!

Date:

Astronomy

Aug. 26, 2013 Rise Set
Actual Time 6:09 AM EDT 7:40 PM EDT
Civil Twilight 5:38 AM EDT 8:11 PM EDT
Nautical Twilight 5:01 AM EDT 8:48 PM EDT
Astronomical Twilight 4:22 AM EDT 9:27 PM EDT
Moon 10:32 PM EDT (8/26) 12:25 PM EDT (8/26)
Length of Visible Light 14h 32m
Length of Day
13h 31m
Waning Gibbous, 67% of the Moon is Illuminated
Aug 26
Waning Gibbous
Aug 28
Last Quarter
Sep 5
New
Sep 12
First Quarter
Sep 19
Full

Hourly Weather History & Observations

Time (EDT) Temp. Dew Point Humidity Pressure Visibility Wind Dir Wind Speed Gust Speed Precip Events Conditions
12:53 AM 62.1 °F 61.0 °F 96% 30.12 in 6.0 mi Calm Calm - 0.06 in Rain Rain
1:53 AM 63.0 °F 61.0 °F 93% 30.07 in 10.0 mi Calm Calm - 0.06 in   Overcast
2:53 AM 63.0 °F 61.0 °F 93% 30.04 in 10.0 mi South 4.6 mph - 0.00 in Rain Light Rain
3:53 AM 64.0 °F 61.0 °F 90% 30.02 in 6.0 mi SSE 3.5 mph - 0.02 in Rain Light Rain
4:53 AM 64.0 °F 62.1 °F 93% 30.00 in 10.0 mi South 5.8 mph - 0.01 in   Overcast
5:53 AM 64.0 °F 62.1 °F 93% 29.99 in 10.0 mi South 5.8 mph - N/A   Overcast
6:53 AM 64.9 °F 63.0 °F 93% 29.99 in 10.0 mi Calm Calm - N/A   Overcast
7:22 AM 64.4 °F 62.6 °F 94% 29.99 in 10.0 mi SSE 5.8 mph - N/A   Overcast
7:53 AM 66.0 °F 64.0 °F 93% 29.99 in 9.0 mi Calm Calm - N/A   Overcast
8:19 AM 66.2 °F 64.4 °F 94% 29.98 in 10.0 mi SSE 3.5 mph - N/A   Overcast
8:53 AM 66.9 °F 64.0 °F 90% 29.98 in 10.0 mi SE 6.9 mph - N/A   Overcast
9:53 AM 69.1 °F 64.9 °F 87% 29.97 in 10.0 mi SSE 5.8 mph - N/A   Overcast
10:24 AM 69.8 °F 64.4 °F 83% 29.97 in 10.0 mi South 5.8 mph - N/A   Overcast
10:53 AM 69.1 °F 64.9 °F 87% 29.96 in 10.0 mi SE 5.8 mph - N/A   Overcast
2:53 PM 72.0 °F 66.0 °F 81% 29.90 in 10.0 mi ESE 4.6 mph - N/A   Unknown
3:53 PM 72.0 °F 66.0 °F 81% 29.89 in 10.0 mi SE 6.9 mph - N/A   Overcast
4:41 PM 71.6 °F 66.2 °F 83% 29.87 in 10.0 mi SE 4.6 mph - N/A   Overcast
4:53 PM 71.1 °F 66.9 °F 87% 29.87 in 10.0 mi Calm Calm - N/A   Overcast
5:11 PM 71.6 °F 66.2 °F 83% 29.87 in 8.0 mi Calm Calm - 0.00 in   Overcast
5:53 PM 72.0 °F 68.0 °F 87% 29.87 in 10.0 mi Calm Calm - 0.00 in   Overcast
6:26 PM 71.6 °F 68.0 °F 88% 29.88 in 9.0 mi Calm Calm - N/A   Overcast
6:53 PM 71.1 °F 68.0 °F 90% 29.87 in 6.0 mi Calm Calm - N/A   Overcast
7:07 PM 71.6 °F 68.0 °F 88% 29.87 in 4.0 mi Calm Calm - 0.01 in Rain Light Rain
7:53 PM 69.1 °F 68.0 °F 96% 29.87 in 3.0 mi Calm Calm - 0.08 in Rain Rain
7:58 PM 69.8 °F 68.0 °F 94% 29.87 in 0.8 mi Calm Calm - 0.17 in Rain Heavy Rain
8:09 PM 69.8 °F 68.0 °F 94% 29.87 in 2.0 mi Calm Calm - 0.23 in Rain Light Rain
8:18 PM 69.8 °F 68.0 °F 94% 29.87 in 3.0 mi Calm Calm - 0.23 in Rain Light Rain
8:53 PM 69.1 °F 68.0 °F 96% 29.87 in 4.0 mi Calm Calm - 0.23 in Rain Light Rain
9:42 PM 69.8 °F 68.0 °F 94% 29.88 in 3.0 mi Calm Calm - 0.01 in   Overcast
9:47 PM 69.8 °F 68.0 °F 94% 29.88 in 2.5 mi Calm Calm - 0.01 in   Overcast
9:53 PM 69.1 °F 68.0 °F 96% 29.88 in 3.0 mi Calm Calm - 0.01 in   Overcast
10:53 PM 69.1 °F 68.0 °F 96% 29.88 in 1.8 mi Calm Calm - N/A   Overcast
11:08 PM 69.8 °F 68.0 °F 94% 29.88 in 3.0 mi Calm Calm - N/A   Overcast
11:22 PM 69.8 °F 68.0 °F 94% 29.87 in 2.0 mi Calm Calm - N/A   Overcast
11:53 PM 69.1 °F 68.0 °F 96% 29.87 in 2.5 mi Calm Calm - N/A   Overcast